| time (UTC) | temp F | wind direction | speed MPH | gust MPH | rain 1hr in | rain 24hr in | rain mn in | humidity % | barometer mb |
| 20260508083858 | 37 | 42 | 0.0 | 1.0 | 0.00 | 0.02 | 0.02 | 94 | 1012.5 |
| 20260508080857 | 38 | 342 | 1.0 | 2.0 | 0.02 | 0.02 | 0.02 | 94 | 1012.7 |
| 20260508075857 | 37 | 294 | 0.0 | 4.0 | 0.02 | 0.02 | 0.02 | 94 | 1012.6 |
| 20260508072856 | 37 | 5 | 2.0 | 6.0 | 0.01 | 0.01 | 0.01 | 92 | 1012.6 |
| 20260508071856 | 38 | 5 | 3.0 | 8.0 | 0.01 | 0.01 | 0.01 | 91 | 1012.6 |
| 20260508070856 | 38 | 302 | 4.0 | 9.0 | 0.00 | 0.00 | 0.00 | 90 | 1012.6 |
| 20260508065855 | 39 | 340 | 6.0 | 14.0 | 0.00 | 0.00 | 0.00 | 87 | 1012.7 |
| 20260508064856 | 40 | 313 | 5.0 | 13.0 | 0.00 | 0.00 | 0.00 | 83 | 1012.6 |
| 20260508063855 | 41 | 299 | 5.0 | 9.0 | 0.00 | 0.00 | 0.00 | 79 | 1012.6 |
| 20260508062855 | 41 | 342 | 3.0 | 10.0 | 0.00 | 0.00 | 0.00 | 76 | 1012.5 |
| 20260508061855 | 41 | 302 | 5.0 | 8.0 | 0.00 | 0.00 | 0.00 | 74 | 1012.4 |
| 20260508060855 | 42 | 303 | 4.0 | 6.0 | 0.00 | 0.00 | 0.00 | 73 | 1012.5 |
| 20260508055854 | 41 | 266 | 4.0 | 4.0 | 0.00 | 0.00 | 0.00 | 75 | 1012.3 |
| 20260508054854 | 41 | 276 | 0.0 | 4.0 | 0.00 | 0.00 | 0.00 | 74 | 1012.2 |
| 20260508053855 | 40 | 268 | 1.0 | 3.0 | 0.00 | 0.00 | 0.00 | 76 | 1012.1 |
| 20260508051854 | 40 | 267 | 0.0 | 3.0 | 0.00 | 0.00 | 0.00 | 77 | 1012.0 |
| 20260508050854 | 40 | 267 | 0.0 | 2.0 | 0.00 | 0.00 | 0.00 | 75 | 1012.1 |
| 20260508045854 | 41 | 267 | 0.0 | 3.0 | 0.00 | 0.00 | 0.00 | 74 | 1012.3 |
| 20260508043853 | 41 | 267 | 0.0 | 3.0 | 0.00 | 0.00 | 0.00 | 72 | 1012.2 |
| 20260508042853 | 41 | 226 | 0.0 | 3.0 | 0.00 | 0.00 | 0.00 | 74 | 1012.3 |
| 20260508041853 | 40 | 226 | 0.0 | 3.0 | 0.00 | 0.00 | 0.00 | 78 | 1012.2 |
| 20260508040853 | 39 | 219 | 0.0 | 0.0 | 0.00 | 0.00 | 0.00 | 79 | 1012.1 |
| 20260508034853 | 38 | 219 | 0.0 | 0.0 | 0.00 | 0.00 | 0.00 | 82 | 1012.1 |
| 20260508033853 | 38 | 219 | 0.0 | 0.0 | 0.00 | 0.00 | 0.00 | 82 | 1012.1 |
| 20260508032852 | 37 | 219 | 0.0 | 0.0 | 0.00 | 0.00 | 0.00 | 82 | 1012.0 |
| 20260508031852 | 37 | 219 | 0.0 | 1.0 | 0.00 | 0.00 | 0.00 | 82 | 1012.0 |
| 20260508030852 | 37 | 219 | 0.0 | 2.0 | 0.00 | 0.00 | 0.00 | 81 | 1012.1 |
| 20260508025851 | 37 | 220 | 0.0 | 0.0 | 0.00 | 0.00 | 0.00 | 78 | 1011.7 |
| 20260508024852 | 38 | 220 | 0.0 | 3.0 | 0.00 | 0.00 | 0.00 | 77 | 1011.7 |
| 20260508023852 | 38 | 217 | 3.0 | 4.0 | 0.00 | 0.00 | 0.00 | 77 | 1011.5 |
| 20260508021851 | 39 | 302 | 0.0 | 2.0 | 0.00 | 0.00 | 0.00 | 76 | 1011.3 |
| 20260508015851 | 40 | 306 | 3.0 | 4.0 | 0.00 | 0.00 | 0.00 | 72 | 1011.6 |
| 20260508014850 | 40 | 301 | 2.0 | 3.0 | 0.00 | 0.00 | 0.00 | 72 | 1011.7 |
| 20260508013851 | 40 | 296 | 2.0 | 4.0 | 0.00 | 0.00 | 0.00 | 73 | 1011.7 |
| 20260508012850 | 41 | 300 | 2.0 | 3.0 | 0.00 | 0.00 | 0.00 | 72 | 1011.7 |
| 20260508011850 | 41 | 302 | 2.0 | 4.0 | 0.00 | 0.00 | 0.00 | 71 | 1011.8 |
| 20260508010850 | 42 | 306 | 3.0 | 3.0 | 0.00 | 0.00 | 0.00 | 72 | 1011.7 |
| 20260508005850 | 42 | 302 | 2.0 | 4.0 | 0.00 | 0.00 | 0.00 | 74 | 1011.6 |
| 20260508003850 | 43 | 321 | 3.0 | 4.0 | 0.00 | 0.00 | 0.00 | 71 | 1011.4 |
| 20260508002849 | 44 | 324 | 2.0 | 4.0 | 0.00 | 0.00 | 0.00 | 68 | 1011.5 |
| 20260508001849 | 45 | 311 | 3.0 | 4.0 | 0.00 | 0.00 | 0.00 | 68 | 1011.2 |
| 20260508000849 | 45 | 310 | 2.0 | 4.0 | 0.00 | 0.00 | 0.00 | 68 | 1011.1 |
| 20260507235849 | 46 | 332 | 2.0 | 4.0 | 0.00 | 0.00 | 0.00 | 67 | 1011.1 |
| 20260507234848 | 46 | 314 | 2.0 | 4.0 | 0.00 | 0.00 | 0.00 | 66 | 1010.9 |
| 20260507233849 | 46 | 342 | 2.0 | 6.0 | 0.00 | 0.00 | 0.00 | 64 | 1010.9 |
| 20260507232848 | 47 | 319 | 4.0 | 9.0 | 0.00 | 0.00 | 0.00 | 62 | 1010.9 |
| 20260507230848 | 48 | 322 | 3.0 | 8.0 | 0.00 | 0.00 | 0.00 | 60 | 1010.9 |
| 20260507225848 | 48 | 307 | 1.0 | 10.0 | 0.00 | 0.00 | 0.00 | 61 | 1010.8 |
| 20260507224848 | 48 | 333 | 5.0 | 9.0 | 0.00 | 0.00 | 0.00 | 59 | 1010.7 |
| 20260507222848 | 48 | 317 | 10.0 | 13.0 | 0.00 | 0.00 | 0.00 | 58 | 1010.7 |
| 20260507221847 | 48 | 346 | 4.0 | 12.0 | 0.00 | 0.00 | 0.00 | 59 | 1010.7 |
| 20260507215847 | 49 | 340 | 3.0 | 9.0 | 0.00 | 0.00 | 0.00 | 57 | 1010.5 |
| 20260507212846 | 51 | 5 | 9.0 | 13.0 | 0.00 | 0.00 | 0.00 | 57 | 1010.5 |
| 20260507205846 | 49 | 314 | 4.0 | 9.0 | 0.00 | 0.00 | 0.00 | 56 | 1010.7 |
| 20260507204846 | 49 | 234 | 3.0 | 7.0 | 0.00 | 0.00 | 0.00 | 58 | 1010.6 |
| 20260507203846 | 49 | 315 | 3.0 | 11.0 | 0.00 | 0.00 | 0.00 | 58 | 1010.6 |
| 20260507202845 | 49 | 298 | 4.0 | 12.0 | 0.00 | 0.00 | 0.00 | 58 | 1010.9 |
| 20260507201845 | 49 | 341 | 4.0 | 13.0 | 0.00 | 0.00 | 0.00 | 58 | 1010.9 |
| 20260507200845 | 49 | 336 | 9.0 | 14.0 | 0.00 | 0.00 | 0.00 | 58 | 1011.0 |
| 20260507194845 | 49 | 349 | 15.0 | 16.0 | 0.00 | 0.00 | 0.00 | 57 | 1011.2 |
| 20260507193844 | 50 | 296 | 5.0 | 16.0 | 0.00 | 0.00 | 0.00 | 56 | 1011.4 |
| 20260507191844 | 50 | 310 | 10.0 | 16.0 | 0.00 | 0.00 | 0.00 | 58 | 1011.6 |
| 20260507190844 | 50 | 298 | 5.0 | 16.0 | 0.00 | 0.01 | 0.00 | 56 | 1011.6 |
| 20260507184844 | 50 | 254 | 1.0 | 11.0 | 0.00 | 0.02 | 0.00 | 57 | 1012.1 |
| 20260507183844 | 50 | 323 | 3.0 | 14.0 | 0.00 | 0.02 | 0.00 | 57 | 1012.3 |
| 20260507182844 | 50 | 285 | 4.0 | 12.0 | 0.00 | 0.02 | 0.00 | 62 | 1012.1 |
| 20260507181843 | 49 | 313 | 11.0 | 15.0 | 0.00 | 0.02 | 0.00 | 59 | 1012.1 |
| 20260507174843 | 51 | 5 | 4.0 | 14.0 | 0.00 | 0.02 | 0.00 | 61 | 1012.6 |
| 20260507173842 | 49 | 319 | 4.0 | 15.0 | 0.00 | 0.03 | 0.00 | 58 | 1012.5 |
| 20260507171842 | 49 | 304 | 7.0 | 14.0 | 0.00 | 0.04 | 0.00 | 62 | 1012.8 |
| 20260507170912 | 49 | 355 | 5.0 | 12.0 | 0.00 | 0.04 | 0.00 | 66 | 1012.9 |
| 20260507165842 | 48 | 29 | 4.0 | 17.0 | 0.00 | 0.05 | 0.00 | 65 | 1012.9 |
| 20260507164842 | 48 | 304 | 5.0 | 16.0 | 0.00 | 0.05 | 0.00 | 66 | 1012.9 |
| 20260507163841 | 48 | 304 | 5.0 | 12.0 | 0.00 | 0.05 | 0.00 | 68 | 1013.0 |
| 20260507162911 | 47 | 311 | 11.0 | 16.0 | 0.00 | 0.05 | 0.00 | 70 | 1012.9 |
| 20260507160911 | 48 | 292 | 4.0 | 12.0 | 0.00 | 0.06 | 0.00 | 71 | 1013.1 |
| 20260507155841 | 46 | 218 | 4.0 | 11.0 | 0.00 | 0.06 | 0.00 | 72 | 1013.4 |
| 20260507154910 | 46 | 224 | 2.0 | 13.0 | 0.00 | 0.06 | 0.00 | 71 | 1013.4 |
| 20260507152840 | 44 | 319 | 6.0 | 12.0 | 0.00 | 0.07 | 0.00 | 71 | 1013.6 |
| 20260507151840 | 44 | 294 | 7.0 | 12.0 | 0.00 | 0.07 | 0.00 | 71 | 1013.7 |
| 20260507150840 | 45 | 317 | 5.0 | 14.0 | 0.00 | 0.07 | 0.00 | 71 | 1013.7 |
| 20260507145840 | 45 | 295 | 1.0 | 16.0 | 0.00 | 0.08 | 0.00 | 70 | 1013.5 |
| 20260507142839 | 45 | 339 | 1.0 | 13.0 | 0.00 | 0.11 | 0.00 | 70 | 1013.4 |
| 20260507141839 | 45 | 344 | 8.0 | 13.0 | 0.00 | 0.11 | 0.00 | 71 | 1013.6 |
| 20260507140909 | 45 | 211 | 0.0 | 11.0 | 0.00 | 0.12 | 0.00 | 73 | 1013.8 |
| 20260507135909 | 44 | 284 | 4.0 | 15.0 | 0.00 | 0.13 | 0.00 | 71 | 1013.5 |
| 20260507134909 | 44 | 324 | 5.0 | 11.0 | 0.00 | 0.14 | 0.00 | 75 | 1013.7 |
| 20260507133839 | 43 | 322 | 5.0 | 11.0 | 0.00 | 0.15 | 0.00 | 74 | 1013.5 |
| 20260507132908 | 43 | 309 | 8.0 | 9.0 | 0.00 | 0.16 | 0.00 | 75 | 1013.6 |
| 20260507131908 | 43 | 288 | 3.0 | 13.0 | 0.00 | 0.17 | 0.00 | 77 | 1013.7 |
| 20260507130908 | 42 | 325 | 3.0 | 17.0 | 0.00 | 0.19 | 0.00 | 76 | 1013.8 |
| 20260507125907 | 43 | 310 | 7.0 | 11.0 | 0.00 | 0.20 | 0.00 | 75 | 1013.9 |
| 20260507123838 | 41 | 299 | 4.0 | 9.0 | 0.00 | 0.24 | 0.00 | 76 | 1013.4 |
| 20260507122907 | 41 | 319 | 6.0 | 12.0 | 0.00 | 0.25 | 0.00 | 77 | 1013.5 |
| 20260507121907 | 41 | 316 | 5.0 | 10.0 | 0.00 | 0.27 | 0.00 | 76 | 1013.5 |
| 20260507115907 | 41 | 327 | 9.0 | 10.0 | 0.00 | 0.29 | 0.00 | 80 | 1013.7 |
| 20260507114907 | 39 | 288 | 1.0 | 8.0 | 0.00 | 0.30 | 0.00 | 85 | 1013.5 |
| 20260507113906 | 38 | 153 | 2.0 | 4.0 | 0.00 | 0.31 | 0.00 | 92 | 1013.3 |
| 20260507112836 | 37 | 154 | 1.0 | 4.0 | 0.00 | 0.32 | 0.00 | 93 | 1013.1 |
| 20260507105906 | 36 | 76 | 0.0 | 3.0 | 0.00 | 0.37 | 0.00 | 94 | 1013.1 |
| 20260507104905 | 35 | 278 | 0.0 | 0.0 | 0.00 | 0.39 | 0.00 | 95 | 1013.2 |
| 20260507103905 | 34 | 278 | 0.0 | 0.0 | 0.00 | 0.40 | 0.00 | 94 | 1012.9 |
| 20260507102905 | 33 | 278 | 0.0 | 0.0 | 0.00 | 0.40 | 0.00 | 94 | 1012.9 |
| 20260507101905 | 33 | 284 | 0.0 | 0.0 | 0.00 | 0.42 | 0.00 | 93 | 1012.5 |
| 20260507100905 | 33 | 284 | 0.0 | 0.0 | 0.00 | 0.43 | 0.00 | 93 | 1012.6 |
| 20260507095905 | 33 | 284 | 0.0 | 0.0 | 0.00 | 0.44 | 0.00 | 92 | 1012.4 |
| 20260507094905 | 33 | 284 | 0.0 | 0.0 | 0.00 | 0.44 | 0.00 | 91 | 1012.2 |
| 20260507093905 | 34 | 296 | 0.0 | 0.0 | 0.00 | 0.45 | 0.00 | 90 | 1012.2 |
| 20260507092904 | 34 | 296 | 0.0 | 2.0 | 0.00 | 0.45 | 0.00 | 90 | 1012.3 |
| 20260507091904 | 34 | 297 | 0.0 | 2.0 | 0.00 | 0.46 | 0.00 | 90 | 1012.5 |
| 20260507085904 | 36 | 297 | 0.0 | 4.0 | 0.00 | 0.47 | 0.00 | 86 | 1012.8 |
| 20260507084904 | 36 | 300 | 1.0 | 5.0 | 0.00 | 0.48 | 0.00 | 86 | 1012.8 |